Starlink 4522

operational
NORAD ID: 53388 Int'l Des: 2022-097 Owner: SPXS Country: US Constellation: starlink
LEOCIRCULAR

Starlink 4522について

説明を読み込み中...

リアルタイム位置

3D地球を読み込み中...

次回通過

高度履歴

Altitude vs Time

uPlot chart will show altitude changes over time

軌道要素

1 53388U 22097A 25302.43560527 .00000352 00000-0 40174-4 0 9991
2 53388 53.2180 353.3405 0001287 92.5506 267.5634 15.08841155179037
Epoch: Oct 29, 2025 • Age: 13 hours

現在のステータス

高度 544.7 km
速度 7.60 km/s
衛星直下点 49.97°N, 22.25°E
打ち上げ日 Aug 10, 2022
運用期間 3.2 years
タイプ internet

技術仕様

分類 Payload
質量 297.00 kg
乾燥質量 275.00 kg
総質量 297.00 kg
長さ 0.20 m
直径 2.80 m
スパン 9.00 m
形状 Box + pan
製造者 SPXS
バスタイプ Starlink
フェーズステータス In Orbit
所有者/国 SPXS/US

大規模コンステレーション

Loading constellations...